Weather History for YBHM - June, 2013

Change the Weather History Date:

Friday, June 21, 2013

  Actual Average Record
Temperature  
Mean Temperature 66 °F -  
Max Temperature 68 °F - - ()
Min Temperature 64 °F - - ()
Cooling Degree Days 1    
Growing Degree Days 16 (Base 50)    
Moisture  
Dew Point 57 °F    
Average Humidity 72    
Maximum Humidity 83    
Minimum Humidity 45    
Precipitation  
Precipitation 0.00 in - - ()
Sea Level Pressure  
Sea Level Pressure 30.05 in    
Wind  
Wind Speed 12 mph ()    
Max Wind Speed 18 mph    
Max Gust Speed -    
T = Trace of Precipitation, MM = Missing Value Source: Averaged Metar Reports

Daily Weather History Graph

Daily Weather History Graph

Search for Another Location

Airport or City:

Trip Planner

Search our weather history database for the weather conditions in past years. The results will help you decide how hot, cold, wet, or windy it might be!

Date:

Astronomy

Jun. 21, 2013 Rise Set
Actual Time 6:39 AM AEST 5:32 PM AEST
Civil Twilight 6:14 AM AEST 5:56 PM AEST
Nautical Twilight 5:47 AM AEST 6:24 PM AEST
Astronomical Twilight 5:20 AM AEST 6:51 PM AEST
Moon 3:22 PM AEST (6/21) 3:49 AM AEST (6/21)
Length of Visible Light 11h 42m
Length of Day
10h 53m
Waxing Gibbous, 92% of the Moon is Illuminated
Jun 21
Waxing Gibbous
Jun 23
Full
Jun 30
Last Quarter
Jul 8
New
Jul 16
First Quarter

Hourly Weather History & Observations

Time (AEST) Temp. Dew Point Humidity Pressure Visibility Wind Dir Wind Speed Gust Speed Precip Events Conditions
12:00 AM 67 °F 58 °F 67% 30.07 in - SE 11.5 mph - -  
12:00 AM 66.2 °F 59.0 °F 78% 30.06 in - SE 11.5 mph - N/A   Unknown
12:30 AM 66.2 °F 59.0 °F 78% 30.04 in - SSE 12.7 mph - N/A   Unknown
1:00 AM 66.2 °F 60.8 °F 83% 30.06 in - South 12.7 mph - N/A   Unknown
1:30 AM 66.2 °F 60.8 °F 83% 30.04 in - SSE 11.5 mph - N/A   Unknown
2:00 AM 66.2 °F 59.0 °F 78% 30.04 in - SSE 11.5 mph - N/A   Unknown
2:30 AM 66.2 °F 60.8 °F 83% 30.04 in - SSE 11.5 mph - N/A   Unknown
3:00 AM 66 °F 60 °F 74% 30.04 in - SSE 13.8 mph - -  
3:00 AM 66.2 °F 59.0 °F 78% 30.04 in - SSE 13.8 mph - N/A   Unknown
3:30 AM 66.2 °F 60.8 °F 83% 30.04 in - South 12.7 mph - N/A   Unknown
4:00 AM 66.2 °F 60.8 °F 83% 30.04 in - South 13.8 mph - N/A   Unknown
4:30 AM 64.4 °F 59.0 °F 83% 30.04 in - South 12.7 mph - N/A   Unknown
5:00 AM 66.2 °F 59.0 °F 78% 30.04 in - South 11.5 mph - N/A   Unknown
5:30 AM 66.2 °F 59.0 °F 78% 30.04 in - SE 12.7 mph - N/A   Unknown
6:00 AM 65 °F 59 °F 74% 30.07 in - South 13.8 mph - -  
6:00 AM 66.2 °F 59.0 °F 78% 30.06 in - South 13.8 mph - N/A   Unknown
6:30 AM 66.2 °F 57.2 °F 73% 30.06 in - SSE 12.7 mph - N/A   Unknown
7:00 AM 66.2 °F 57.2 °F 73% 30.06 in - SSE 13.8 mph - N/A   Unknown
7:30 AM 66.2 °F 57.2 °F 73% 30.06 in - SSE 12.7 mph - N/A   Unknown
8:00 AM 66.2 °F 59.0 °F 78% 30.09 in - SSE 12.7 mph - N/A   Unknown
8:30 AM 66.2 °F 57.2 °F 73% 30.09 in - SE 12.7 mph - N/A   Unknown
9:00 AM 66 °F 57 °F 64% 30.12 in - South 11.5 mph - -  
9:00 AM 66.2 °F 57.2 °F 73% 30.09 in - South 11.5 mph - N/A   Unknown
9:30 AM 66.2 °F 57.2 °F 73% 30.09 in - South 10.4 mph - N/A   Unknown
10:00 AM 66.2 °F 57.2 °F 73% 30.09 in - SSE 12.7 mph - N/A   Unknown
10:30 AM 66.2 °F 57.2 °F 73% 30.09 in - SSE 12.7 mph - N/A   Unknown
11:00 AM 66.2 °F 55.4 °F 68% 30.06 in - SSE 13.8 mph - N/A   Unknown
11:30 AM 68.0 °F 55.4 °F 64% 30.06 in - SE 11.5 mph - N/A   Unknown
12:00 PM 67 °F 56 °F 59% 30.04 in - East 12.7 mph - -  
12:00 PM 66.2 °F 55.4 °F 68% 30.04 in - East 12.7 mph - N/A   Unknown
12:30 PM 68.0 °F 57.2 °F 68% 30.01 in - ESE 10.4 mph - N/A   Unknown
1:00 PM 68.0 °F 55.4 °F 64% 29.98 in - ESE 12.7 mph - N/A   Unknown
1:30 PM 68.0 °F 57.2 °F 68% 29.98 in - SE 11.5 mph - N/A   Unknown
2:00 PM 66.2 °F 59.0 °F 78% 30.01 in - SSE 10.4 mph - N/A   Unknown
2:30 PM 66.2 °F 57.2 °F 73% 29.98 in - SSE 12.7 mph - N/A   Unknown
3:00 PM 66 °F 58 °F 68% 30.02 in - South 17.3 mph - -  
3:00 PM 66.2 °F 57.2 °F 73% 30.01 in - South 17.3 mph - N/A   Unknown
3:30 PM 64.4 °F 55.4 °F 73% 30.01 in - South 16.1 mph - N/A   Unknown
4:00 PM 64.4 °F 55.4 °F 73% 30.04 in - South 18.4 mph - N/A   Unknown
4:30 PM 64.4 °F 55.4 °F 73% 30.04 in - South 16.1 mph - N/A   Unknown
5:00 PM 66.2 °F 53.6 °F 64% 30.04 in - SSE 13.8 mph - N/A   Unknown
5:30 PM 66.2 °F 48.2 °F 52% 30.04 in - SSE 15.0 mph - N/A   Unknown
6:00 PM 65 °F 49 °F 45% 30.04 in - ESE 16.1 mph - -  
6:00 PM 66.2 °F 48.2 °F 52% 30.04 in - ESE 16.1 mph - N/A   Unknown
6:30 PM 66.2 °F 53.6 °F 64% 30.06 in - SE 13.8 mph - N/A   Unknown
7:00 PM 66.2 °F 53.6 °F 64% 30.06 in - SE 15.0 mph - N/A   Unknown
7:30 PM 66.2 °F 55.4 °F 68% 30.06 in - SSE 16.1 mph - N/A   Unknown
8:00 PM 66.2 °F 55.4 °F 68% 30.06 in - SSE 15.0 mph - N/A   Unknown
8:30 PM 66.2 °F 55.4 °F 68% 30.09 in - SE 15.0 mph - N/A   Unknown
9:00 PM 66 °F 56 °F 62% 30.10 in - SE 16.1 mph - -  
9:00 PM 66.2 °F 55.4 °F 68% 30.09 in - SE 16.1 mph - N/A   Unknown
9:30 PM 66.2 °F 57.2 °F 73% 30.09 in - SE 16.1 mph - N/A   Unknown
10:00 PM 66.2 °F 57.2 °F 73% 30.09 in - SE 15.0 mph - N/A   Unknown
10:30 PM 66.2 °F 59.0 °F 78% 30.09 in - SE 13.8 mph - N/A   Unknown
11:00 PM 64.4 °F 57.2 °F 77% 30.09 in - SSE 13.8 mph - N/A   Unknown
11:30 PM 64.4 °F 59.0 °F 83% 30.09 in - SSE 12.7 mph - N/A   Unknown